Regional Weather Roundup
Issued by NWS

Home | Current Version | Previous Version | Graphics & Text | Print | Product List | Glossary On
Versions: 1 2 3 4 5 6 7 8 9 10 11 12 13 14 15 16 17 18 19 20 21 22 23 24 25 26 27 28 29 30 31 32 33 34 35 36 37 38 39 40 41 42 43 44 45 46 47 48 49 50
530
ASUS43 KOAX 232210
RWRNE

WEATHER ROUNDUP FOR NEBRASKA
NATIONAL WEATHER SERVICE OMAHA NE
500 PM CDT SAT SEP 23 2017

NOTES: SATELLITE DATA IS BEING USED TO AUGMENT CLOUD COVER ABOVE
       12000 FEET.
       "FAIR" INDICATES FEW OR NO CLOUDS BELOW 12,000 FEET WITH NO
       SIGNIFICANT WEATHER AND/OR OBSTRUCTIONS TO VISIBILITY.


NEZ001>004-019>022-054>056-232300-
NEBRASKA PANHANDLE

CITY           SKY/WX    TMP DP  RH WIND       PRES   REMARKS
SCOTTSBLUFF    CLOUDY    48  43  82 N8        29.97S
ALLIANCE       CLOUDY    46  44  93 N13       29.97F
CHADRON        CLOUDY    47  43  86 NE7       30.01R
GORDON         CLOUDY    47  44  90 N7        29.99R
KIMBALL        CLOUDY    47  44  91 N10       29.97S
SIDNEY         CLOUDY    48  47  96 N12       29.95F
$$

NEZ057>060-069>072-079>082-232300-
SOUTHWEST NEBRASKA

CITY           SKY/WX    TMP DP  RH WIND       PRES   REMARKS
NORTH PLATTE   RAIN      55  52  89 E14       29.96R FOG
IMPERIAL       CLOUDY    61  52  72 E12       29.92R
LEXINGTON      CLOUDY    61  58  90 NW13      29.93R
MCCOOK         CLOUDY    61  59  93 N14       29.86F THUNDER
OGALLALA       CLOUDY    59  53  80 E7        29.91S
$$

NEZ005>010-023>029-035>040-094-232300-
NORTH CENTRAL NEBRASKA

CITY           SKY/WX    TMP DP  RH WIND       PRES   REMARKS
VALENTINE      CLOUDY    52  49  89 NE12      29.95F
AINSWORTH      LGT RAIN  51  51 100 N10       29.95F
BROKEN BOW     LGT RAIN  55  53  93 N18G24    29.91F
O`NEILL        CLOUDY    56  56 100 N8        29.90S FOG
ORD            CLOUDY    64  57  78 NW14      29.86R
THEDFORD       CLOUDY    53  51  92 N8        29.93F
$$

NEZ041-046>049-061>064-073>077-083>087-232300-
SOUTH CENTRAL NEBRASKA

CITY           SKY/WX    TMP DP  RH WIND       PRES   REMARKS
GRAND ISLAND   CLOUDY    87  63  44 SE18G26   29.82F
AURORA         MOSUNNY   86  60  40 S18G25    29.83S
HASTINGS       PTSUNNY   88  58  36 SE14G25   29.83F
HEBRON         SUNNY     90  60  35 S21G26    29.86R HX  90
HOLDREGE       CLOUDY    72  63  71 W15G22    29.86R
KEARNEY        CLOUDY    84  65  52 S14       29.82S
YORK           MOSUNNY   88  63  42 SE22G29   29.84S
$$

NEZ011>018-030>034-042>045-232300-
NORTHEAST NEBRASKA

CITY           SKY/WX    TMP DP  RH WIND       PRES   REMARKS
NORFOLK        CLOUDY    86  67  52 SE13      29.82F
ALBION         PTSUNNY   87  65  49 S17G25    29.82F
BLAIR          MOSUNNY   89  65  44 SE12G18   29.88S HX  91
COLUMBUS       CLOUDY    89  63  41 S21       29.83F HX  90
FREMONT        MOSUNNY   90  62  38 SE18G24   29.86S HX  90
TEKAMAH        MOSUNNY   89  64  43 SE13G25   29.85F HX  90
WAYNE          CLOUDY    85  65  50 S18       29.84F
$$

NEZ050>053-065>068-078-088>093-232300-
SOUTHEAST NEBRASKA

CITY           SKY/WX    TMP DP  RH WIND       PRES   REMARKS
LINCOLN        MOSUNNY   91  63  39 S24       29.85F HX  92
OMAHA EPPLEY   PTSUNNY   92  64  39 S22G30    29.86F HX  93
BEATRICE       MOSUNNY   91  63  39 S20G25    29.88R HX  92
FALLS CITY     SUNNY     89  64  43 S14G23    29.91F HX  90
NEBRASKA CITY  MOSUNNY   89  62  40 S18G25    29.89F
PLATTSMOUTH    MOSUNNY   91  62  38 S12G22    29.89S HX  91
$$

NEZ044-045-051>053-067-232300-
OMAHA AREA

CITY           SKY/WX    TMP DP  RH WIND       PRES   REMARKS
OMAHA EPPLEY   PTSUNNY   92  64  39 S22G30    29.86F HX  93
BLAIR          MOSUNNY   89  65  44 SE12G18   29.88S HX  91
FREMONT        MOSUNNY   90  62  38 SE18G24   29.86S HX  90
MILLARD        MOSUNNY   92  65  41 S17G29    29.86F HX  94
OFFUTT AFB     SUNNY     90  62  38 SE23      29.87F HX  90
PLATTSMOUTH    MOSUNNY   91  62  38 S12G22    29.89S HX  91
WAHOO          FAIR      91  62  37 S15G24    29.85F HX  91
$$




USA.gov is the U.S. government's official web portal to all federal, state and local government web resources and services.